Location: Cactus School
(34.5700°N, 118.0931°W)
Time: 09:00:43
(UTC-08:00)

Tiros 1 - Pass Details

Date: 01 December 2019
Orbit: 630 x 664 km, 48.4° (Epoch: 04 December)

Event Time Altitude Azimuth Distance (km) Brightness Sun altitude
Rises 15:33:23 0° 307° (NW) 2,917 10.7 11.2°
Reaches altitude 10° 15:35:42 10° 308° (NW) 2,007 9.9 10.8°
Maximum altitude 15:40:20 89° 31° (NNE) 634 7.3 10.0°
Drops below altitude 10° 15:44:58 10° 129° (SE) 2,009 9.6 9.2°
Sets 15:47:17 0° 129° (SE) 2,918 10.3 8.8°
